����,���ϕ���(m/s),���ϕ���,�ő�u�ԕ���(m/s),�ő啗��������,�C��(��),���x(%),10���Ԉړ��ώZ�J��(mm),1���Ԉړ��ώZ�J��(mm),���J��(mm),�݌v�J��(mm)
2020-07-06T00:00:00+09:00,0.3,��,1.6,��,23.2,96.2,0.5,0.5,0.5,0.5
2020-07-06T00:01:00+09:00,0.3,���쐼,1.6,��,23.2,96.3,0.5,0.5,0,0.5
2020-07-06T00:02:00+09:00,0.2,�É�,1.6,��,23.2,96.4,0.5,0.5,0,0.5
2020-07-06T00:03:00+09:00,0.1,�É�,0.9,��,23.2,96.3,0.5,0.5,0,0.5
2020-07-06T00:04:00+09:00,0.1,�É�,0.7,��,23.2,96.3,0.5,0.5,0,0.5
2020-07-06T00:05:00+09:00,0.1,�É�,0.7,��,23.2,96.3,0.5,0.5,0,0.5
2020-07-06T00:06:00+09:00,0.2,�É�,0.9,�쓌,23.2,96.4,0.5,0.5,0,0.5
2020-07-06T00:07:00+09:00,0.3,��쓌,1.2,�쓌,23.2,96.5,0.5,0.5,0,0.5
2020-07-06T00:08:00+09:00,0.4,�쓌,1.7,���쓌,23.1,96.3,0,0.5,0,0.5
2020-07-06T00:09:00+09:00,0.5,�쓌,1.8,���쓌,23.1,96.4,0,0.5,0,0.5
2020-07-06T00:10:00+09:00,0.6,���쓌,1.8,���쓌,23.1,96.5,0,0.5,0,0.5
2020-07-06T00:11:00+09:00,0.6,���쓌,1.8,���쓌,23.1,96.7,0,0.5,0,0.5
2020-07-06T00:12:00+09:00,0.6,���쓌,1.8,���쓌,23.1,96.8,0,0.5,0,0.5
2020-07-06T00:13:00+09:00,0.6,���쓌,1.8,���쓌,23.2,96.8,0,0.5,0,0.5
2020-07-06T00:14:00+09:00,0.7,��,1.8,���쓌,23.1,96.8,0,0.5,0,0.5
2020-07-06T00:15:00+09:00,0.8,��,1.8,���쓌,23.1,96.8,0,0.5,0,0.5
2020-07-06T00:16:00+09:00,0.8,��,1.8,���쓌,23.1,96.7,0,0.5,0,0.5
2020-07-06T00:17:00+09:00,0.8,���k��,1.8,���쓌,23.1,96.8,0,0.5,0,0.5
2020-07-06T00:18:00+09:00,0.7,���k��,1.8,���쓌,23.2,96.8,0,0.5,0,0.5
2020-07-06T00:19:00+09:00,0.6,�k��,1.3,��,23.1,96.7,0,0.5,0,0.5
2020-07-06T00:20:00+09:00,0.5,�k�k��,1.2,�k�k��,23.2,96.8,0,0.5,0,0.5
2020-07-06T00:21:00+09:00,0.5,�k�k��,1.2,�k�k��,23.2,96.9,0,0.5,0,0.5
2020-07-06T00:22:00+09:00,0.5,�k,1.2,�k�k��,23.2,96.7,0,0.5,0,0.5
2020-07-06T00:23:00+09:00,0.5,�k,1.2,�k�k��,23.1,96.6,0,0.5,0,0.5
2020-07-06T00:24:00+09:00,0.5,�k�k��,1.2,�k�k��,23.2,96.6,0,0.5,0,0.5
2020-07-06T00:25:00+09:00,0.4,�k�k��,1.2,�k�k��,23.2,96.7,0,0.5,0,0.5
2020-07-06T00:26:00+09:00,0.3,�k�k��,0.9,�k,23.4,97,0,0.5,0,0.5
2020-07-06T00:27:00+09:00,0.2,�É�,0.8,�k�k��,23.5,97,0,0.5,0,0.5
2020-07-06T00:28:00+09:00,0.2,�É�,0.6,�k��,23.3,96.2,0,0.5,0,0.5
2020-07-06T00:29:00+09:00,0.2,�É�,0.6,�k��,23.3,96,0,0.5,0,0.5
2020-07-06T00:30:00+09:00,0.2,�É�,0.6,�k��,23.2,96.2,0,0.5,0,0.5
2020-07-06T00:31:00+09:00,0.2,�É�,0.6,�k��,23.2,96.2,0,0.5,0,0.5
2020-07-06T00:32:00+09:00,0.2,�É�,0.6,�k��,23.2,96.4,0,0.5,0,0.5
2020-07-06T00:33:00+09:00,0.1,�É�,0.6,�k��,23.2,96.4,0,0.5,0,0.5
2020-07-06T00:34:00+09:00,0.2,�É�,0.6,�k��,23.2,96.4,0,0.5,0,0.5
2020-07-06T00:35:00+09:00,0.2,�É�,0.6,�k��,23.4,96.8,0,0.5,0,0.5
2020-07-06T00:36:00+09:00,0.2,�É�,0.6,�k��,23.6,97.2,0,0.5,0,0.5
2020-07-06T00:37:00+09:00,0.3,�쐼,0.7,���k��,23.3,96.5,0,0.5,0,0.5
2020-07-06T00:38:00+09:00,0.3,�쐼,0.8,���쐼,23.2,96,0,0.5,0,0.5
2020-07-06T00:39:00+09:00,0.3,�쐼,0.8,���쐼,23.3,96.2,0,0.5,0,0.5
2020-07-06T00:40:00+09:00,0.3,�쐼,0.8,���쐼,23.2,96.2,0,0.5,0,0.5
2020-07-06T00:41:00+09:00,0.3,���쐼,0.8,���쐼,23.2,96.2,0,0.5,0,0.5
2020-07-06T00:42:00+09:00,0.3,���쐼,0.8,���쐼,23.2,96.4,0,0.5,0,0.5
2020-07-06T00:43:00+09:00,0.3,��,0.8,���쐼,23.2,96.4,0,0.5,0,0.5
2020-07-06T00:44:00+09:00,0.3,�k��,0.8,���쐼,23.2,96.4,0,0.5,0,0.5
2020-07-06T00:45:00+09:00,0.3,�k�k��,0.8,���쐼,23.3,96.7,0,0.5,0,0.5
2020-07-06T00:46:00+09:00,0.3,�k�k��,0.8,���쐼,23.2,96.3,0,0.5,0,0.5
2020-07-06T00:47:00+09:00,0.4,�k�k��,0.8,���쐼,23.2,96.3,0,0.5,0,0.5
2020-07-06T00:48:00+09:00,0.3,�k�k��,0.8,�k��,23.1,96.4,0,0.5,0,0.5
2020-07-06T00:49:00+09:00,0.4,�k,0.8,�k��,23.1,96.4,0,0.5,0,0.5
2020-07-06T00:50:00+09:00,0.4,�k�k��,0.8,�k��,23.1,96.5,0,0.5,0,0.5
2020-07-06T00:51:00+09:00,0.4,�k�k��,1.3,�k��,23.1,96.6,0,0.5,0,0.5
2020-07-06T00:52:00+09:00,0.4,�k�k��,1.3,�k��,23.1,96.6,0,0.5,0,0.5
2020-07-06T00:53:00+09:00,0.5,�k�k��,1.3,�k��,23.1,96.7,0,0.5,0,0.5
2020-07-06T00:54:00+09:00,0.5,�k��,1.5,��,23.1,96.8,0,0.5,0,0.5
2020-07-06T00:55:00+09:00,0.6,�k��,1.5,��,23.1,96.6,0,0.5,0,0.5
2020-07-06T00:56:00+09:00,0.6,���k��,1.5,��,23.1,96.7,0,0.5,0,0.5
2020-07-06T00:57:00+09:00,0.6,��,1.5,��,23.1,96.7,0,0.5,0,0.5
2020-07-06T00:58:00+09:00,0.6,��,1.5,��,23.1,96.7,0,0,0,0.5
2020-07-06T00:59:00+09:00,0.5,��,1.5,��,23,96.8,0.5,0.5,0.5,1
2020-07-06T01:00:00+09:00,0.6,��,1.5,��,23,96.7,0.5,0.5,0.5,1
2020-07-06T01:01:00+09:00,0.5,��,1.5,��,23.1,96.9,0.5,0.5,0.5,1
2020-07-06T01:02:00+09:00,0.4,���k��,1.5,��,23.1,97,0.5,0.5,0.5,1
2020-07-06T01:03:00+09:00,0.5,���k��,1.7,�k,23.1,96.8,0.5,0.5,0.5,1
2020-07-06T01:04:00+09:00,0.5,�k��,1.7,�k,23.1,96.8,0.5,0.5,0.5,1
2020-07-06T01:05:00+09:00,0.6,�k��,2.8,��,23.1,96.9,0.5,0.5,0.5,1
2020-07-06T01:06:00+09:00,0.7,�k��,2.8,��,23.1,96.9,0.5,0.5,0.5,1
2020-07-06T01:07:00+09:00,0.8,�k��,2.8,��,23.1,96.9,1,1,1,1.5
2020-07-06T01:08:00+09:00,0.8,�k��,2.8,��,23.1,96.9,1,1,1,1.5
2020-07-06T01:09:00+09:00,0.9,�k��,2.8,��,23.2,96.9,0.5,1,1,1.5
2020-07-06T01:10:00+09:00,1,���k��,2.8,��,23.2,96.9,0.5,1,1,1.5
2020-07-06T01:11:00+09:00,1.2,���k��,2.8,��,23.2,96.8,0.5,1,1,1.5
2020-07-06T01:12:00+09:00,1.3,��,2.8,��,23.3,96.9,0.5,1,1,1.5
2020-07-06T01:13:00+09:00,1.5,��,3.3,���쐼,23.2,96.6,0.5,1,1,1.5
2020-07-06T01:14:00+09:00,1.6,���쐼,3.3,���쐼,23.2,96.5,0.5,1,1,1.5
2020-07-06T01:15:00+09:00,1.6,���쐼,3.3,���쐼,23.2,96.5,0.5,1,1,1.5
2020-07-06T01:16:00+09:00,1.6,���쐼,3.3,���쐼,23.2,96.5,0.5,1,1,1.5
2020-07-06T01:17:00+09:00,1.6,���쐼,3.3,���쐼,23.2,96.5,0,1,1,1.5
2020-07-06T01:18:00+09:00,1.7,�쐼,3.3,���쐼,23.2,96.5,0.5,1.5,1.5,2
2020-07-06T01:19:00+09:00,1.9,�쐼,3.4,��,23.2,96.5,0.5,1.5,1.5,2
2020-07-06T01:20:00+09:00,2,���쐼,3.8,���쐼,23.2,96.6,0.5,1.5,1.5,2
2020-07-06T01:21:00+09:00,2,���쐼,3.8,���쐼,23.2,96.6,0.5,1.5,1.5,2
2020-07-06T01:22:00+09:00,2,���쐼,3.8,���쐼,23.2,96.5,0.5,1.5,1.5,2
2020-07-06T01:23:00+09:00,1.8,���쐼,3.8,���쐼,23.2,96.5,0.5,1.5,1.5,2
2020-07-06T01:24:00+09:00,1.8,���쐼,3.8,���쐼,23.2,96.5,1,2,2,2.5
2020-07-06T01:25:00+09:00,1.9,���쐼,3.8,���쐼,23.2,96.4,1,2,2,2.5
2020-07-06T01:26:00+09:00,1.9,���쐼,3.8,���쐼,23.2,96.4,1,2,2,2.5
2020-07-06T01:27:00+09:00,2,���쐼,3.8,���쐼,23.1,96.3,1,2,2,2.5
2020-07-06T01:28:00+09:00,2,���쐼,3.8,���쐼,23.2,96.4,0.5,2,2,2.5
2020-07-06T01:29:00+09:00,1.9,���쐼,3.8,���쐼,23.2,96.4,0.5,2,2,2.5
2020-07-06T01:30:00+09:00,1.8,��,3.4,��,23.2,96.5,0.5,2,2,2.5
2020-07-06T01:31:00+09:00,1.6,��,3.4,��,23.2,96.7,0.5,2,2,2.5
2020-07-06T01:32:00+09:00,1.4,��,3.4,��,23.2,96.4,0.5,2,2,2.5
2020-07-06T01:33:00+09:00,1.4,��,3.4,��,23.2,96.5,1,2.5,2.5,3
2020-07-06T01:34:00+09:00,1.3,��,3.4,��,23.1,96.4,0.5,2.5,2.5,3
2020-07-06T01:35:00+09:00,1.1,���k��,3.4,��,23.1,96.4,0.5,2.5,2.5,3
2020-07-06T01:36:00+09:00,0.8,���k��,3.2,���쐼,23.1,96.7,0.5,2.5,2.5,3
2020-07-06T01:37:00+09:00,0.6,�k��,3,���쐼,23.1,96.7,0.5,2.5,2.5,3
2020-07-06T01:38:00+09:00,0.4,��,1.8,��,23.3,97.1,0.5,2.5,2.5,3
2020-07-06T01:39:00+09:00,0.3,�쓌,1.8,��,23.2,96.9,0.5,2.5,2.5,3
2020-07-06T01:40:00+09:00,0.3,�쓌,2.8,��,23.1,96.8,0.5,2.5,2.5,3
2020-07-06T01:41:00+09:00,0.6,��쓌,4.4,��,23.1,96.8,0.5,2.5,2.5,3
2020-07-06T01:42:00+09:00,0.8,��,4.4,��,23.1,96.9,0.5,2.5,2.5,3
2020-07-06T01:43:00+09:00,0.8,��,4.4,��,23.2,96.9,0,2.5,2.5,3
2020-07-06T01:44:00+09:00,0.9,��쐼,4.4,��,23.2,97,0,2.5,2.5,3
2020-07-06T01:45:00+09:00,1,�쐼,4.4,��,23.2,97,0,2.5,2.5,3
2020-07-06T01:46:00+09:00,1.1,�쐼,4.4,��,23.2,96.9,0,2.5,2.5,3
2020-07-06T01:47:00+09:00,1.3,���쐼,4.4,��,23.3,96.9,0,2.5,2.5,3
2020-07-06T01:48:00+09:00,1.6,���쐼,5.1,��,23.4,96.9,0,2.5,2.5,3
2020-07-06T01:49:00+09:00,1.9,���쐼,5.8,��쐼,23.4,96.5,0,2.5,2.5,3
2020-07-06T01:50:00+09:00,2.2,���쐼,5.8,��쐼,23.4,96.2,0,2.5,2.5,3
2020-07-06T01:51:00+09:00,2.1,���쐼,5.8,��쐼,23.4,96,0,2.5,2.5,3
2020-07-06T01:52:00+09:00,2.2,���쐼,5.8,��쐼,23.5,95.8,0,2.5,2.5,3
2020-07-06T01:53:00+09:00,2.2,���쐼,5.8,��쐼,23.4,95.7,0,2.5,2.5,3
2020-07-06T01:54:00+09:00,2.2,���쐼,5.8,��쐼,23.4,95.7,0,2.5,2.5,3
2020-07-06T01:55:00+09:00,2.2,���쐼,5.8,��쐼,23.5,95.8,0,2.5,2.5,3
2020-07-06T01:56:00+09:00,2.1,�쐼,5.8,��쐼,23.5,95.5,0,2.5,2.5,3
2020-07-06T01:57:00+09:00,2.2,�쐼,5.8,��쐼,23.5,95.6,0,2.5,2.5,3
2020-07-06T01:58:00+09:00,2,�쐼,5.8,��쐼,23.6,95.7,0,2.5,2.5,3
2020-07-06T01:59:00+09:00,1.8,�쐼,5.4,��쐼,23.6,95.6,0,2,2.5,3
2020-07-06T02:00:00+09:00,1.7,�쐼,3.8,���쐼,23.6,95.4,0,2,2.5,3
2020-07-06T02:01:00+09:00,1.7,�쐼,3.8,���쐼,23.6,95.2,0,2,2.5,3
2020-07-06T02:02:00+09:00,1.8,�쐼,3.8,���쐼,23.6,95.2,0.5,2.5,3,3.5
2020-07-06T02:03:00+09:00,1.9,�쐼,3.8,���쐼,23.6,94.7,0.5,2.5,3,3.5
2020-07-06T02:04:00+09:00,2,�쐼,4.1,�쐼,23.6,94.7,0.5,2.5,3,3.5
2020-07-06T02:05:00+09:00,2.1,�쐼,4.1,�쐼,23.7,94.2,0.5,2.5,3,3.5
2020-07-06T02:06:00+09:00,2.3,�쐼,4.1,�쐼,23.7,93.9,0.5,2.5,3,3.5
2020-07-06T02:07:00+09:00,2.2,�쐼,4.1,�쐼,23.7,93.7,0.5,2,3,3.5
2020-07-06T02:08:00+09:00,2.2,�쐼,4.1,�쐼,23.7,93.6,0.5,2,3,3.5
2020-07-06T02:09:00+09:00,2.1,�쐼,4.1,�쐼,23.7,93.9,0.5,2,3,3.5
2020-07-06T02:10:00+09:00,1.9,�쐼,4.1,�쐼,23.7,94.5,0.5,2,3,3.5
2020-07-06T02:11:00+09:00,1.8,�쐼,4.1,�쐼,23.6,94.5,0.5,2,3,3.5
2020-07-06T02:12:00+09:00,1.5,��쐼,4.1,�쐼,23.6,94.5,0,2,3,3.5
2020-07-06T02:13:00+09:00,1.3,��쐼,4.1,�쐼,23.6,94.5,0,2,3,3.5
2020-07-06T02:14:00+09:00,1.2,��쐼,3.4,�쐼,23.6,94.6,0,2,3,3.5
2020-07-06T02:15:00+09:00,1.1,��쐼,3.3,���쐼,23.6,94.5,0,2,3,3.5
2020-07-06T02:16:00+09:00,1,��쐼,3.1,�쐼,23.7,94.5,0,2,3,3.5
2020-07-06T02:17:00+09:00,0.9,��쐼,3.1,�쐼,23.9,93.3,0,2,3,3.5
2020-07-06T02:18:00+09:00,0.8,��쐼,3.1,�쐼,24.1,92.9,0,1.5,3,3.5
2020-07-06T02:19:00+09:00,0.8,��쐼,3.1,�쐼,23.9,91.7,0,1.5,3,3.5
2020-07-06T02:20:00+09:00,0.7,��쐼,3.1,�쐼,23.7,92.2,0,1.5,3,3.5
2020-07-06T02:21:00+09:00,0.7,��쐼,3.1,�쐼,23.7,92.9,0,1.5,3,3.5
2020-07-06T02:22:00+09:00,0.7,��쐼,3.1,�쐼,23.5,93.4,0,1.5,3,3.5
2020-07-06T02:23:00+09:00,0.8,��쐼,3.1,�쐼,23.5,94.3,0,1.5,3,3.5
2020-07-06T02:24:00+09:00,0.8,��쐼,3.1,�쐼,23.5,94.9,0,1,3,3.5
2020-07-06T02:25:00+09:00,0.7,�쐼,3.1,�쐼,23.6,95.2,0,1,3,3.5
2020-07-06T02:26:00+09:00,0.6,��쐼,2,��쐼,23.9,95.9,0,1,3,3.5
2020-07-06T02:27:00+09:00,0.8,��쐼,5.4,��,23.8,94.8,0,1,3,3.5
2020-07-06T02:28:00+09:00,1.2,��쐼,6,��,23.9,93.1,0,1,3,3.5
2020-07-06T02:29:00+09:00,1.4,��쐼,6,��,24,91.9,0.5,1.5,3.5,4
2020-07-06T02:30:00+09:00,1.7,��쐼,6,��,23.9,91.8,0.5,1.5,3.5,4
2020-07-06T02:31:00+09:00,1.8,��쐼,6,��,23.8,91.6,0.5,1.5,3.5,4
2020-07-06T02:32:00+09:00,1.7,��쐼,6,��,23.7,92.2,0.5,1.5,3.5,4
2020-07-06T02:33:00+09:00,1.7,��쐼,6,��,23.6,92.8,0.5,1,3.5,4
2020-07-06T02:34:00+09:00,1.6,��,6,��,23.6,93.5,0.5,1,3.5,4
2020-07-06T02:35:00+09:00,1.6,��,6,��,23.9,93.5,0.5,1,3.5,4
2020-07-06T02:36:00+09:00,1.6,��쓌,6,��,23.9,92.4,0.5,1,3.5,4
2020-07-06T02:37:00+09:00,1.5,��,6,��,23.9,92,0.5,1,3.5,4
2020-07-06T02:38:00+09:00,1.1,��,4.8,��쓌,23.8,92,0.5,1,3.5,4
2020-07-06T02:39:00+09:00,0.8,��쐼,4.6,��,23.9,92.1,0,1,3.5,4
2020-07-06T02:40:00+09:00,0.6,���쐼,2.6,��쐼,23.9,91.8,0,1,3.5,4
2020-07-06T02:41:00+09:00,0.5,���k��,2.5,��쐼,23.9,92.1,0,1,3.5,4
2020-07-06T02:42:00+09:00,0.5,��,2.5,��쐼,23.9,92.1,0,1,3.5,4
2020-07-06T02:43:00+09:00,0.6,���쐼,2.5,��쐼,23.9,92.2,0.5,1.5,4,4.5
2020-07-06T02:44:00+09:00,0.6,���쐼,2.5,��쐼,23.9,92.6,0.5,1.5,4,4.5
2020-07-06T02:45:00+09:00,0.5,��,1.4,��,24.1,93.3,0.5,1.5,4,4.5
2020-07-06T02:46:00+09:00,0.5,��,1.4,��,24,92.2,0.5,1.5,4,4.5
2020-07-06T02:47:00+09:00,0.5,��,1.4,��,23.9,92.3,0.5,1.5,4,4.5
2020-07-06T02:48:00+09:00,0.6,��,1.8,���k��,23.9,92.9,0.5,1.5,4,4.5
2020-07-06T02:49:00+09:00,0.7,���k��,1.8,���k��,23.9,92.6,0.5,1.5,4,4.5
2020-07-06T02:50:00+09:00,0.7,��,1.8,���k��,23.9,92.1,0.5,1.5,4,4.5
2020-07-06T02:51:00+09:00,0.7,��,1.8,���k��,23.9,92,0.5,1.5,4,4.5
2020-07-06T02:52:00+09:00,0.7,�쓌,1.8,���k��,23.9,92.2,0.5,1.5,4,4.5
2020-07-06T02:53:00+09:00,0.7,�쓌,1.8,���k��,23.8,92.9,0,1.5,4,4.5
2020-07-06T02:54:00+09:00,0.7,���쓌,1.8,���k��,23.7,93.4,0,1.5,4,4.5
2020-07-06T02:55:00+09:00,0.7,�쓌,1.8,���k��,23.7,93.6,0,1.5,4,4.5
2020-07-06T02:56:00+09:00,0.7,�쓌,1.8,���k��,23.5,93.9,0,1.5,4,4.5
2020-07-06T02:57:00+09:00,0.7,�쓌,1.8,���k��,23.4,94.5,0,1.5,4,4.5
2020-07-06T02:58:00+09:00,0.8,�쓌,2.5,���쓌,23.5,95.1,0,1.5,4,4.5
2020-07-06T02:59:00+09:00,0.8,�쓌,2.5,���쓌,23.6,95.1,0,1.5,4,4.5
2020-07-06T03:00:00+09:00,0.9,��쓌,2.5,���쓌,23.6,95,0,1.5,4,4.5
2020-07-06T03:01:00+09:00,1,��쓌,2.5,���쓌,23.7,95.3,0,1.5,4,4.5
2020-07-06T03:02:00+09:00,0.9,�쓌,2.5,���쓌,23.7,95.3,0,1,4,4.5
2020-07-06T03:03:00+09:00,1,��쓌,2.5,���쓌,23.5,95.1,0,1,4,4.5
2020-07-06T03:04:00+09:00,1.1,��쓌,2.5,���쓌,23.4,94.9,0,1,4,4.5
2020-07-06T03:05:00+09:00,1.1,��쓌,2.5,���쓌,23.4,95.3,0,1,4,4.5
2020-07-06T03:06:00+09:00,1,��쓌,2.5,���쓌,23.4,95.4,0,1,4,4.5
2020-07-06T03:07:00+09:00,1,��쓌,2.5,���쓌,23.5,95.5,0,1,4,4.5
2020-07-06T03:08:00+09:00,0.9,�쓌,2.5,���쓌,23.6,95.3,0,1,4,4.5
2020-07-06T03:09:00+09:00,0.9,�쓌,1.9,���쐼,23.6,95.1,0,1,4,4.5
2020-07-06T03:10:00+09:00,0.8,���쓌,1.9,���쐼,23.6,95.1,0,1,4,4.5
2020-07-06T03:11:00+09:00,0.9,���쓌,3.7,��쓌,23.6,95.2,0,1,4,4.5
2020-07-06T03:12:00+09:00,1.1,�쓌,5.5,�쓌,23.8,95.4,0.5,1.5,4.5,5
2020-07-06T03:13:00+09:00,1.3,���쓌,5.5,�쓌,23.9,94,0.5,1.5,4.5,5
2020-07-06T03:14:00+09:00,1.2,���쓌,5.5,�쓌,23.9,92.8,0.5,1.5,4.5,5
2020-07-06T03:15:00+09:00,1.5,���쓌,7,���쓌,23.9,92.6,0.5,1.5,4.5,5
2020-07-06T03:16:00+09:00,2,���쓌,7,���쓌,24,92.1,0.5,1.5,4.5,5
2020-07-06T03:17:00+09:00,2.3,���쓌,7,���쓌,24.1,91.2,0.5,1.5,4.5,5
2020-07-06T03:18:00+09:00,2.5,�쓌,7,���쓌,24.1,91,0.5,1.5,4.5,5
2020-07-06T03:19:00+09:00,2.5,�쓌,7,���쓌,24,91.2,0.5,1.5,4.5,5
2020-07-06T03:20:00+09:00,2.6,�쓌,7,���쓌,24,91.5,0.5,1.5,4.5,5
2020-07-06T03:21:00+09:00,2.7,�쓌,7,���쓌,24.2,90.8,0.5,1.5,4.5,5
2020-07-06T03:22:00+09:00,2.5,�쓌,7,���쓌,24.2,90.4,0,1.5,4.5,5
2020-07-06T03:23:00+09:00,2.5,�쓌,7,���쓌,24.1,90.4,0,1.5,4.5,5
2020-07-06T03:24:00+09:00,2.8,�쓌,7,���쓌,24.2,89.4,0,1.5,4.5,5
2020-07-06T03:25:00+09:00,2.7,�쓌,7,�쓌,24.1,89.3,0,1.5,4.5,5
2020-07-06T03:26:00+09:00,2.4,�쓌,5.9,���쓌,23.9,90.1,0,1.5,4.5,5
2020-07-06T03:27:00+09:00,2.2,��쓌,5.9,���쓌,23.8,91.2,0.5,2,5,5.5
2020-07-06T03:28:00+09:00,2.2,��쓌,5.9,���쓌,23.7,91.9,0.5,2,5,5.5
2020-07-06T03:29:00+09:00,2.2,��쓌,5.9,���쓌,23.6,92.7,0.5,1.5,5,5.5
2020-07-06T03:30:00+09:00,2.1,��쓌,5.9,���쓌,23.6,93.8,0.5,1.5,5,5.5
2020-07-06T03:31:00+09:00,2,��쓌,5.9,���쓌,23.7,94,0.5,1.5,5,5.5
2020-07-06T03:32:00+09:00,2,��쓌,5.9,���쓌,23.8,93,0.5,1.5,5,5.5
2020-07-06T03:33:00+09:00,1.9,��쓌,5.9,��쓌,23.8,92.2,0.5,1.5,5,5.5
2020-07-06T03:34:00+09:00,1.8,��쓌,5.9,��쓌,23.9,91.1,0.5,1.5,5,5.5
2020-07-06T03:35:00+09:00,1.7,��쓌,5.9,��쓌,23.9,90.7,0.5,1.5,5,5.5
2020-07-06T03:36:00+09:00,1.8,��쓌,5.9,��쓌,24,90.2,0.5,1.5,5,5.5
2020-07-06T03:37:00+09:00,1.7,��쓌,5.9,��쓌,24,90.1,0.5,2,5.5,6
2020-07-06T03:38:00+09:00,1.8,�쓌,5.9,��쓌,24,90.1,0.5,2,5.5,6
2020-07-06T03:39:00+09:00,1.8,�쓌,5.9,��쓌,24,89.5,0.5,2,5.5,6
2020-07-06T03:40:00+09:00,1.9,�쓌,5.9,��쓌,24,89.5,0.5,2,5.5,6
2020-07-06T03:41:00+09:00,1.9,�쓌,5.9,��쓌,24,89.6,0.5,2,5.5,6
2020-07-06T03:42:00+09:00,2,�쓌,5.9,��쓌,24,89.2,0.5,2,5.5,6
2020-07-06T03:43:00+09:00,1.8,�쓌,5.2,��쓌,24.1,88.5,0.5,1.5,5.5,6
2020-07-06T03:44:00+09:00,1.7,�쓌,5.2,��쓌,24.1,88.5,0.5,1.5,5.5,6
2020-07-06T03:45:00+09:00,1.7,�쓌,5.2,��쓌,24.1,88.7,0.5,1.5,5.5,6
2020-07-06T03:46:00+09:00,1.5,�쓌,5.2,��쓌,24.1,88.9,0.5,1.5,5.5,6
2020-07-06T03:47:00+09:00,1.6,��쓌,5.2,��쓌,24,88.8,0,1.5,5.5,6
2020-07-06T03:48:00+09:00,1.5,��쓌,5.1,�쓌,23.8,89.5,0,1.5,5.5,6
2020-07-06T03:49:00+09:00,1.4,��쓌,5.1,�쓌,23.7,90.4,0,1.5,5.5,6
2020-07-06T03:50:00+09:00,1.6,��쓌,6.4,���쓌,23.7,90.8,0,1.5,5.5,6
2020-07-06T03:51:00+09:00,1.8,��쓌,6.4,���쓌,23.9,89.4,0,1.5,5.5,6
2020-07-06T03:52:00+09:00,1.8,��쓌,6.4,���쓌,24,88.7,0,1.5,5.5,6
2020-07-06T03:53:00+09:00,1.9,��쓌,6.4,���쓌,23.9,89,0,1.5,5.5,6
2020-07-06T03:54:00+09:00,1.9,��쓌,6.4,���쓌,23.9,89.4,0,1.5,5.5,6
2020-07-06T03:55:00+09:00,1.9,�쓌,6.4,���쓌,23.9,89.4,0,1.5,5.5,6
2020-07-06T03:56:00+09:00,2.1,�쓌,6.4,���쓌,23.9,89.3,0,1.5,5.5,6
2020-07-06T03:57:00+09:00,2.2,�쓌,6.4,���쓌,23.9,89.1,0,1.5,5.5,6
2020-07-06T03:58:00+09:00,2.1,�쓌,6.4,���쓌,23.9,89.1,0.5,2,6,6.5
2020-07-06T03:59:00+09:00,2.3,�쓌,6.4,���쓌,23.8,89.5,0.5,2,6,6.5
2020-07-06T04:00:00+09:00,2.1,��쓌,5.6,���쓌,23.8,89.9,0.5,2,6,6.5
2020-07-06T04:01:00+09:00,2,��쓌,5.1,��쓌,23.8,90.1,0.5,2,6,6.5
2020-07-06T04:02:00+09:00,2,��쓌,5.1,��쓌,23.7,90.3,0.5,2,6,6.5
2020-07-06T04:03:00+09:00,2,��쓌,4.8,��쓌,23.9,89,1,2.5,6.5,7
2020-07-06T04:04:00+09:00,2,��쓌,4.8,��쓌,23.8,89.2,1,2.5,6.5,7
2020-07-06T04:05:00+09:00,1.9,��쓌,4.8,��쓌,23.9,89.4,1,2.5,6.5,7
2020-07-06T04:06:00+09:00,2.1,��쓌,7,��쓌,24,88.2,1,2.5,6.5,7
2020-07-06T04:07:00+09:00,2.1,��쓌,7.9,��,23.9,88,1,2.5,6.5,7
2020-07-06T04:08:00+09:00,2.3,��쓌,7.9,��,23.9,88.2,0.5,2.5,6.5,7
2020-07-06T04:09:00+09:00,2.3,��쓌,7.9,��,23.8,88.2,0.5,2.5,6.5,7
2020-07-06T04:10:00+09:00,2.3,�쓌,7.9,��,23.9,87.9,0.5,2.5,6.5,7
2020-07-06T04:11:00+09:00,2.5,�쓌,7.9,��,23.8,88,1,3,7,7.5
2020-07-06T04:12:00+09:00,2.5,�쓌,7.9,��,23.8,88.2,1,2.5,7,7.5
2020-07-06T04:13:00+09:00,2.4,�쓌,7.9,��,23.7,89.2,0.5,2.5,7,7.5
2020-07-06T04:14:00+09:00,2.4,�쓌,7.9,��,23.6,89.6,0.5,2.5,7,7.5
2020-07-06T04:15:00+09:00,2.3,�쓌,7.9,��,23.5,90,0.5,2.5,7,7.5
2020-07-06T04:16:00+09:00,2.2,�쓌,7.9,��,23.6,90.1,0.5,2.5,7,7.5
2020-07-06T04:17:00+09:00,2.2,��쓌,6.6,���쓌,23.6,89.4,0.5,2.5,7,7.5
2020-07-06T04:18:00+09:00,2.1,�쓌,6.6,���쓌,23.6,89.3,1,3,7.5,8
2020-07-06T04:19:00+09:00,1.9,�쓌,6.6,���쓌,23.6,89.6,1,3,7.5,8
2020-07-06T04:20:00+09:00,1.9,�쓌,6.6,���쓌,23.7,89.3,1,3,7.5,8
2020-07-06T04:21:00+09:00,1.6,��쓌,4.9,�쓌,23.6,88.9,0.5,3,7.5,8
2020-07-06T04:22:00+09:00,1.6,��쓌,4.7,���쓌,23.5,89.8,0.5,3,7.5,8
2020-07-06T04:23:00+09:00,1.5,��쓌,4.7,���쓌,23.7,90.1,0.5,3,7.5,8
2020-07-06T04:24:00+09:00,1.5,��,4.7,���쓌,23.7,90,0.5,3,7.5,8
2020-07-06T04:25:00+09:00,1.5,��쐼,4.7,���쓌,23.6,90.3,0.5,3,7.5,8
2020-07-06T04:26:00+09:00,1.4,�쐼,3.3,��,23.6,90.5,0.5,3,7.5,8
2020-07-06T04:27:00+09:00,1.4,���쐼,3.4,��,23.7,89.2,0.5,2.5,7.5,8
2020-07-06T04:28:00+09:00,1.5,���쐼,3.9,��,23.8,88.4,0,2.5,7.5,8
2020-07-06T04:29:00+09:00,1.5,���쐼,3.9,��,23.8,88.4,0,2.5,7.5,8
2020-07-06T04:30:00+09:00,1.5,���쐼,3.9,��,23.7,89.3,0,2.5,7.5,8
2020-07-06T04:31:00+09:00,1.4,���쐼,3.9,��,23.7,89.5,0,2.5,7.5,8
2020-07-06T04:32:00+09:00,1.4,���쐼,3.9,��,23.8,89.1,0,2.5,7.5,8
2020-07-06T04:33:00+09:00,1.5,���쐼,3.9,��,23.8,89.2,0,2.5,7.5,8
2020-07-06T04:34:00+09:00,1.7,���쐼,3.9,��,23.8,89.6,0,2.5,7.5,8
2020-07-06T04:35:00+09:00,1.6,���쐼,3.9,��,23.7,89.9,0,2.5,7.5,8
2020-07-06T04:36:00+09:00,1.5,���쐼,3.9,��,23.7,90.3,0.5,3,8,8.5
2020-07-06T04:37:00+09:00,1.3,�쐼,3.9,��,23.6,90.5,0.5,2.5,8,8.5
2020-07-06T04:38:00+09:00,1.2,�쐼,3.7,��,23.6,90.6,0.5,2.5,8,8.5
2020-07-06T04:39:00+09:00,1,�쐼,3.7,��,23.6,90.8,0.5,2.5,8,8.5
2020-07-06T04:40:00+09:00,0.9,�쐼,3.7,��,23.6,91.2,0.5,2.5,8,8.5
2020-07-06T04:41:00+09:00,0.9,�쐼,3.7,��,23.5,91.1,0.5,2.5,8,8.5
2020-07-06T04:42:00+09:00,1,�쐼,4.9,�쐼,23.3,91.4,0.5,2.5,8,8.5
2020-07-06T04:43:00+09:00,1.1,�쐼,4.9,�쐼,23.4,91.8,0.5,2.5,8,8.5
2020-07-06T04:44:00+09:00,1.4,�쐼,7.5,��,23.4,91.3,1,3,8.5,9
2020-07-06T04:45:00+09:00,1.6,�쐼,7.5,��,23.5,90.7,1,3,8.5,9
2020-07-06T04:46:00+09:00,1.6,�쐼,7.5,��,23.4,91.2,0.5,3,8.5,9
2020-07-06T04:47:00+09:00,1.7,�쐼,7.5,��,23.4,91.2,0.5,3,8.5,9
2020-07-06T04:48:00+09:00,1.9,�쐼,7.5,��,23.5,91.3,0.5,3,8.5,9
2020-07-06T04:49:00+09:00,2.2,�쐼,7.5,��,23.6,91.1,0.5,3,8.5,9
2020-07-06T04:50:00+09:00,2.4,�쐼,7.5,��,23.6,90,0.5,3,8.5,9
2020-07-06T04:51:00+09:00,2.6,�쐼,7.5,��,23.7,89.4,0.5,3,8.5,9
2020-07-06T04:52:00+09:00,2.6,�쐼,7.5,��,23.6,88.8,0.5,3,8.5,9
2020-07-06T04:53:00+09:00,2.6,�쐼,7.5,��,23.5,89.4,1,3.5,9,9.5
2020-07-06T04:54:00+09:00,2.2,��쐼,5.7,��,23.5,89.8,0.5,3.5,9,9.5
2020-07-06T04:55:00+09:00,2,��쐼,5.2,��,23.4,89.9,0.5,3.5,9,9.5
2020-07-06T04:56:00+09:00,2,��쐼,5.2,��,23.6,89.3,0.5,3.5,9,9.5
2020-07-06T04:57:00+09:00,2,��쐼,5.2,��,23.4,89.4,0.5,3.5,9,9.5
2020-07-06T04:58:00+09:00,1.9,��쐼,5.2,��,23.4,90.2,0.5,3,9,9.5
2020-07-06T04:59:00+09:00,1.7,��쐼,5.2,��,23.4,90.7,0.5,3,9,9.5
2020-07-06T05:00:00+09:00,1.4,��쐼,5.2,��,23.3,91.8,0.5,3,9,9.5
2020-07-06T05:01:00+09:00,1.2,��,3.3,��,23.3,91.9,1,3.5,9.5,10
2020-07-06T05:02:00+09:00,1,��,3.3,��,23.3,91.6,1,3.5,9.5,10
2020-07-06T05:03:00+09:00,0.9,��쓌,2.8,��,23.3,91.5,0.5,3,9.5,10
2020-07-06T05:04:00+09:00,0.9,��쓌,2.8,��,23.3,91.5,0.5,3,9.5,10
2020-07-06T05:05:00+09:00,0.7,�쓌,2.8,��,23.3,91.5,0.5,3,9.5,10
2020-07-06T05:06:00+09:00,0.7,�쓌,2.8,��,23.4,91.6,0.5,3,9.5,10
2020-07-06T05:07:00+09:00,0.6,�쓌,2.8,��,23.4,91.6,0.5,3,9.5,10
2020-07-06T05:08:00+09:00,0.5,���쓌,2.2,��,23.5,90.9,0.5,3,9.5,10
2020-07-06T05:09:00+09:00,0.5,���쓌,2.2,��,23.4,90.8,0.5,3,9.5,10
2020-07-06T05:10:00+09:00,0.5,��,1.6,��쓌,23.4,91.2,0.5,3,9.5,10
2020-07-06T05:11:00+09:00,0.4,��,1.5,��,23.3,91.5,0,2.5,9.5,10
2020-07-06T05:12:00+09:00,0.4,���k��,1.5,��,23.2,91.9,0,2.5,9.5,10
2020-07-06T05:13:00+09:00,0.4,�k��,1.2,�k��,23.3,91.8,0,2.5,9.5,10
2020-07-06T05:14:00+09:00,0.4,�k�k��,1.2,�k��,23.3,91.7,0,2.5,9.5,10
2020-07-06T05:15:00+09:00,0.4,�k,1.2,�k��,23.3,91.6,0,2.5,9.5,10
2020-07-06T05:16:00+09:00,0.4,�k,1.2,�k��,23.4,91.2,0.5,3,10,10.5
2020-07-06T05:17:00+09:00,0.4,�k�k��,1.2,�k��,23.3,91.3,0.5,3,10,10.5
2020-07-06T05:18:00+09:00,0.4,�k�k��,1.1,�k,23.3,91.5,0.5,2.5,10,10.5
2020-07-06T05:19:00+09:00,0.5,�k�k��,1.1,�k,23.3,91.6,0.5,2.5,10,10.5
2020-07-06T05:20:00+09:00,0.6,�k�k��,1.1,�k,23.3,91.7,0.5,2.5,10,10.5
2020-07-06T05:21:00+09:00,0.6,�k,1.1,�k,23.3,91.9,0.5,2.5,10,10.5
2020-07-06T05:22:00+09:00,0.7,�k,1.1,�k,23.3,92,0.5,2.5,10,10.5
2020-07-06T05:23:00+09:00,0.7,�k,1.1,�k,23.2,92.4,0.5,2.5,10,10.5
2020-07-06T05:24:00+09:00,0.7,�k,1.6,��쐼,23.1,92.7,0.5,2.5,10,10.5
2020-07-06T05:25:00+09:00,0.8,�k�k��,1.9,��,23,93.2,0.5,2.5,10,10.5
2020-07-06T05:26:00+09:00,0.8,�k��,1.9,��,23,94,0,2.5,10,10.5
2020-07-06T05:27:00+09:00,0.8,���k��,1.9,��,23.1,94.5,0,2.5,10,10.5
2020-07-06T05:28:00+09:00,0.8,��,1.9,��,23.3,95.2,0,2.5,10,10.5
2020-07-06T05:29:00+09:00,0.7,�쐼,1.9,��,23.2,94.6,0,2.5,10,10.5
2020-07-06T05:30:00+09:00,0.7,�쐼,1.9,��,23.1,94.4,0,2.5,10,10.5
2020-07-06T05:31:00+09:00,0.6,�쐼,1.9,��,23.1,94.2,0,2.5,10,10.5
2020-07-06T05:32:00+09:00,0.6,��쐼,1.9,��,23,94.6,0,2.5,10,10.5
2020-07-06T05:33:00+09:00,0.7,��쐼,1.9,��,22.9,95,0,2.5,10,10.5
2020-07-06T05:34:00+09:00,0.8,��쐼,1.9,��,22.8,95.2,0,2.5,10,10.5
2020-07-06T05:35:00+09:00,0.7,��,1.7,��쓌,22.6,95.4,0,2.5,10,10.5
2020-07-06T05:36:00+09:00,0.7,��,1.7,��쓌,22.7,95.7,0,2,10,10.5
2020-07-06T05:37:00+09:00,0.6,��,1.7,��쓌,22.9,96.1,0,2,10,10.5
2020-07-06T05:38:00+09:00,0.6,��쓌,1.7,��쓌,22.9,96,0,2,10,10.5
2020-07-06T05:39:00+09:00,0.5,�쓌,1.7,��쓌,22.9,95.7,0,2,10,10.5
2020-07-06T05:40:00+09:00,0.5,�쓌,1.7,��쓌,22.8,95.7,0,2,10,10.5
2020-07-06T05:41:00+09:00,0.6,�쓌,1.7,��쓌,22.7,95.6,0,2,10,10.5
2020-07-06T05:42:00+09:00,0.6,��쓌,1.7,��쓌,22.6,95.8,0,2,10,10.5
2020-07-06T05:43:00+09:00,0.5,��쓌,1.4,�쓌,22.6,96,0,2,10,10.5
2020-07-06T05:44:00+09:00,0.5,��쓌,1.2,�쐼,22.8,96.4,0,1.5,10,10.5
2020-07-06T05:45:00+09:00,0.4,��쓌,1.2,�쐼,22.9,96.5,0,1.5,10,10.5
2020-07-06T05:46:00+09:00,0.4,��쓌,1.2,�쐼,22.7,96.2,0,1.5,10,10.5
2020-07-06T05:47:00+09:00,0.4,��쓌,1.2,�쐼,22.8,96.2,0,1.5,10,10.5
2020-07-06T05:48:00+09:00,0.4,��쓌,1.2,�쐼,22.8,96.1,0,1.5,10,10.5
2020-07-06T05:49:00+09:00,0.5,��쓌,1.2,�쐼,22.7,96.1,0,1.5,10,10.5
2020-07-06T05:50:00+09:00,0.4,���쓌,1.2,�쐼,22.8,96.1,0,1.5,10,10.5
2020-07-06T05:51:00+09:00,0.4,��,1.2,�쐼,22.8,96.1,0,1.5,10,10.5
2020-07-06T05:52:00+09:00,0.4,��,1.5,��,22.8,96.2,0,1.5,10,10.5
2020-07-06T05:53:00+09:00,0.3,���k��,1.5,��,23,96.5,0,1,10,10.5
2020-07-06T05:54:00+09:00,0.4,���k��,1.7,���쐼,22.8,96.1,0,1,10,10.5
2020-07-06T05:55:00+09:00,0.6,�k��,2.2,���쐼,22.6,95.9,0,1,10,10.5
2020-07-06T05:56:00+09:00,0.7,�k,2.7,���쐼,22.6,96,0,1,10,10.5
2020-07-06T05:57:00+09:00,0.8,�k��,2.7,���쐼,22.6,96.2,0,1,10,10.5
2020-07-06T05:58:00+09:00,0.8,�k��,2.7,���쐼,22.7,96.4,0,1,10,10.5
2020-07-06T05:59:00+09:00,0.8,�k��,2.7,���쐼,22.7,96.4,0,1,10,10.5
2020-07-06T06:00:00+09:00,0.9,�k�k��,2.7,���쐼,22.7,96.5,0,1,10,10.5
2020-07-06T06:01:00+09:00,0.9,�k,2.7,���쐼,22.8,96.5,0,0.5,10,10.5
2020-07-06T06:02:00+09:00,0.9,�k,2.7,���쐼,22.8,96.4,0,0.5,10,10.5
2020-07-06T06:03:00+09:00,1,�k�k��,2.7,���쐼,22.8,96.3,0,0.5,10,10.5
2020-07-06T06:04:00+09:00,0.9,�k�k��,2.7,���쐼,22.8,96.2,0,0.5,10,10.5
2020-07-06T06:05:00+09:00,0.8,�k,2.7,���쐼,22.7,96.2,0,0.5,10,10.5
2020-07-06T06:06:00+09:00,0.6,�k�k��,1.4,��,22.7,96.2,0,0.5,10,10.5
2020-07-06T06:07:00+09:00,0.5,�k��,1.2,�k,22.7,96.4,0,0.5,10,10.5
2020-07-06T06:08:00+09:00,0.5,���k��,1.4,��,22.7,96.4,0,0.5,10,10.5
2020-07-06T06:09:00+09:00,0.6,��,1.4,��,22.7,96.4,0,0.5,10,10.5
2020-07-06T06:10:00+09:00,0.6,�쓌,1.4,��,22.7,96.4,0,0.5,10,10.5
2020-07-06T06:11:00+09:00,0.6,�쓌,1.4,��,22.8,96.6,0,0.5,10,10.5